owner,sensor,date,latitude,longitude,relative_humidity,qcFlag 
COMPS,ioos:station:USF.COMPS:C10:1,2015-12-01T01:05:00Z,27.1690,-82.9260,86.57,1111122 
COMPS,ioos:station:USF.COMPS:C10:1,2015-12-01T01:35:00Z,27.1690,-82.9260,87.54,1111122 
COMPS,ioos:station:USF.COMPS:C10:1,2015-12-01T05:05:00Z,27.1690,-82.9260,89.16,1111122 
COMPS,ioos:station:USF.COMPS:C10:1,2015-12-01T05:35:00Z,27.1690,-82.9260,89.32,1111122 
COMPS,ioos:station:USF.COMPS:C10:1,2015-12-01T06:05:00Z,27.1690,-82.9260,89.77,1111122 
COMPS,ioos:station:USF.COMPS:C10:1,2015-12-01T06:35:00Z,27.1690,-82.9260,89.39,1111122 
COMPS,ioos:station:USF.COMPS:C10:1,2015-12-01T07:05:00Z,27.1690,-82.9260,89.35,1111122 
COMPS,ioos:station:USF.COMPS:C10:1,2015-12-01T07:35:00Z,27.1690,-82.9260,89.32,1111122 
COMPS,ioos:station:USF.COMPS:C10:1,2015-12-01T08:05:00Z,27.1690,-82.9260,89.77,1111122 
COMPS,ioos:station:USF.COMPS:C10:1,2015-12-01T08:35:00Z,27.1690,-82.9260,89.84,1111122 
COMPS,ioos:station:USF.COMPS:C10:1,2015-12-01T09:05:00Z,27.1690,-82.9260,89.85,1111122 
COMPS,ioos:station:USF.COMPS:C10:1,2015-12-01T09:35:00Z,27.1690,-82.9260,89.93,1111122 
COMPS,ioos:station:USF.COMPS:C10:1,2015-12-01T10:05:00Z,27.1690,-82.9260,89.95,1111122 
COMPS,ioos:station:USF.COMPS:C10:1,2015-12-01T10:35:00Z,27.1690,-82.9260,90.05,1111122 
COMPS,ioos:station:USF.COMPS:C10:1,2015-12-01T11:05:00Z,27.1690,-82.9260,89.87,1111122 
COMPS,ioos:station:USF.COMPS:C10:1,2015-12-01T11:35:00Z,27.1690,-82.9260,89.92,1111122 
COMPS,ioos:station:USF.COMPS:C10:1,2015-12-01T12:05:00Z,27.1690,-82.9260,89.82,1111122 
COMPS,ioos:station:USF.COMPS:C10:1,2015-12-01T12:35:00Z,27.1690,-82.9260,89.65,1111122 
COMPS,ioos:station:USF.COMPS:C10:1,2015-12-01T13:05:00Z,27.1690,-82.9260,90.15,1111122 
COMPS,ioos:station:USF.COMPS:C10:1,2015-12-01T13:35:00Z,27.1690,-82.9260,90.24,1111122 
COMPS,ioos:station:USF.COMPS:C10:1,2015-12-01T14:05:00Z,27.1690,-82.9260,90.39,1111122 
COMPS,ioos:station:USF.COMPS:C10:1,2015-12-01T14:35:00Z,27.1690,-82.9260,90.59,1111122 
COMPS,ioos:station:USF.COMPS:C10:1,2015-12-01T15:05:00Z,27.1690,-82.9260,90.53,1111122 
COMPS,ioos:station:USF.COMPS:C10:1,2015-12-01T15:35:00Z,27.1690,-82.9260,90.33,1111122 
COMPS,ioos:station:USF.COMPS:C10:1,2015-12-01T16:05:00Z,27.1690,-82.9260,89.94,1111122 
COMPS,ioos:station:USF.COMPS:C10:1,2015-12-01T16:35:00Z,27.1690,-82.9260,89.58,1111122 
COMPS,ioos:station:USF.COMPS:C10:1,2015-12-01T17:05:00Z,27.1690,-82.9260,88.98,1111122 
COMPS,ioos:station:USF.COMPS:C10:1,2015-12-01T17:35:00Z,27.1690,-82.9260,89.09,1111122 
COMPS,ioos:station:USF.COMPS:C10:1,2015-12-01T18:05:00Z,27.1690,-82.9260,88.59,1111122 
COMPS,ioos:station:USF.COMPS:C10:1,2015-12-01T18:35:00Z,27.1690,-82.9260,88.67,1111122 
COMPS,ioos:station:USF.COMPS:C10:1,2015-12-01T19:05:00Z,27.1690,-82.9260,89.22,1111122 
COMPS,ioos:station:USF.COMPS:C10:1,2015-12-01T19:35:00Z,27.1690,-82.9260,88.77,1111122 
COMPS,ioos:station:USF.COMPS:C10:1,2015-12-01T20:05:00Z,27.1690,-82.9260,85.31,1111122 
COMPS,ioos:station:USF.COMPS:C10:1,2015-12-01T20:35:00Z,27.1690,-82.9260,78.91,1111122 
COMPS,ioos:station:USF.COMPS:C10:1,2015-12-01T21:05:00Z,27.1690,-82.9260,76.56,1111122 
COMPS,ioos:station:USF.COMPS:C10:1,2015-12-01T21:35:00Z,27.1690,-82.9260,80.49,1111122 
COMPS,ioos:station:USF.COMPS:C10:1,2015-12-01T22:05:00Z,27.1690,-82.9260,84.36,1111122 
COMPS,ioos:station:USF.COMPS:C10:1,2015-12-01T22:35:00Z,27.1690,-82.9260,87.2,1111122 
COMPS,ioos:station:USF.COMPS:C10:1,2015-12-01T23:05:00Z,27.1690,-82.9260,88.54,1111122 
COMPS,ioos:station:USF.COMPS:C10:1,2015-12-01T23:35:00Z,27.1690,-82.9260,89.5,1111122 
COMPS,ioos:station:USF.COMPS:C10:1,2015-12-02T00:05:00Z,27.1690,-82.9260,90.3,1111122 
COMPS,ioos:station:USF.COMPS:C10:1,2015-12-02T00:35:00Z,27.1690,-82.9260,90.58,1111122 
COMPS,ioos:station:USF.COMPS:C10:1,2015-12-02T01:05:00Z,27.1690,-82.9260,91.1,1111122 
COMPS,ioos:station:USF.COMPS:C10:1,2015-12-02T01:35:00Z,27.1690,-82.9260,91.25,1111122 
COMPS,ioos:station:USF.COMPS:C10:1,2015-12-02T05:05:00Z,27.1690,-82.9260,88.31,1111122 
COMPS,ioos:station:USF.COMPS:C10:1,2015-12-02T05:35:00Z,27.1690,-82.9260,88.64,1111122 
COMPS,ioos:station:USF.COMPS:C10:1,2015-12-02T06:05:00Z,27.1690,-82.9260,88.66,1111122 
COMPS,ioos:station:USF.COMPS:C10:1,2015-12-02T06:35:00Z,27.1690,-82.9260,88.96,1111122 
COMPS,ioos:station:USF.COMPS:C10:1,2015-12-02T07:05:00Z,27.1690,-82.9260,89.31,1111122 
COMPS,ioos:station:USF.COMPS:C10:1,2015-12-02T07:35:00Z,27.1690,-82.9260,89.73,1111122 
COMPS,ioos:station:USF.COMPS:C10:1,2015-12-02T08:05:00Z,27.1690,-82.9260,90.29,1111122 
COMPS,ioos:station:USF.COMPS:C10:1,2015-12-02T08:35:00Z,27.1690,-82.9260,90.25,1111122 
COMPS,ioos:station:USF.COMPS:C10:1,2015-12-02T09:05:00Z,27.1690,-82.9260,90.72,1111122 
COMPS,ioos:station:USF.COMPS:C10:1,2015-12-02T09:35:00Z,27.1690,-82.9260,91.4,1111122 
COMPS,ioos:station:USF.COMPS:C10:1,2015-12-02T10:05:00Z,27.1690,-82.9260,91.94,1111122 
COMPS,ioos:station:USF.COMPS:C10:1,2015-12-02T10:35:00Z,27.1690,-82.9260,92.19,1111122 
COMPS,ioos:station:USF.COMPS:C10:1,2015-12-02T11:05:00Z,27.1690,-82.9260,92.6,1111122 
COMPS,ioos:station:USF.COMPS:C10:1,2015-12-02T11:35:00Z,27.1690,-82.9260,92.99,1111122 
COMPS,ioos:station:USF.COMPS:C10:1,2015-12-02T12:05:00Z,27.1690,-82.9260,93.22,1111122 
COMPS,ioos:station:USF.COMPS:C10:1,2015-12-02T12:35:00Z,27.1690,-82.9260,92.81,1111122 
COMPS,ioos:station:USF.COMPS:C10:1,2015-12-02T13:05:00Z,27.1690,-82.9260,92.8,1111122 
COMPS,ioos:station:USF.COMPS:C10:1,2015-12-02T13:35:00Z,27.1690,-82.9260,92.02,1111122 
COMPS,ioos:station:USF.COMPS:C10:1,2015-12-02T14:05:00Z,27.1690,-82.9260,91.86,1111122 
COMPS,ioos:station:USF.COMPS:C10:1,2015-12-02T14:35:00Z,27.1690,-82.9260,91.96,1111122 
COMPS,ioos:station:USF.COMPS:C10:1,2015-12-02T15:05:00Z,27.1690,-82.9260,92.01,1111122 
COMPS,ioos:station:USF.COMPS:C10:1,2015-12-02T15:35:00Z,27.1690,-82.9260,91.82,1111122 
COMPS,ioos:station:USF.COMPS:C10:1,2015-12-02T16:05:00Z,27.1690,-82.9260,91.9,1111122 
COMPS,ioos:station:USF.COMPS:C10:1,2015-12-02T16:35:00Z,27.1690,-82.9260,92.04,1111122 
COMPS,ioos:station:USF.COMPS:C10:1,2015-12-02T17:05:00Z,27.1690,-82.9260,91.6,1111122 
COMPS,ioos:station:USF.COMPS:C10:1,2015-12-02T17:35:00Z,27.1690,-82.9260,92.11,1111122 
COMPS,ioos:station:USF.COMPS:C10:1,2015-12-02T18:05:00Z,27.1690,-82.9260,92.3,1111122 
COMPS,ioos:station:USF.COMPS:C10:1,2015-12-02T18:35:00Z,27.1690,-82.9260,92.17,1111122 
COMPS,ioos:station:USF.COMPS:C10:1,2015-12-02T19:05:00Z,27.1690,-82.9260,91.7,1111122 
COMPS,ioos:station:USF.COMPS:C10:1,2015-12-02T19:35:00Z,27.1690,-82.9260,91.54,1111122 
COMPS,ioos:station:USF.COMPS:C10:1,2015-12-02T20:05:00Z,27.1690,-82.9260,91.1,1111122 
COMPS,ioos:station:USF.COMPS:C10:1,2015-12-02T20:35:00Z,27.1690,-82.9260,91.26,1111122 
COMPS,ioos:station:USF.COMPS:C10:1,2015-12-02T21:05:00Z,27.1690,-82.9260,91.35,1111122 
COMPS,ioos:station:USF.COMPS:C10:1,2015-12-02T21:35:00Z,27.1690,-82.9260,92.37,1111122 
COMPS,ioos:station:USF.COMPS:C10:1,2015-12-02T22:05:00Z,27.1690,-82.9260,92.79,1111122 
COMPS,ioos:station:USF.COMPS:C10:1,2015-12-02T22:35:00Z,27.1690,-82.9260,93.22,1111122 
COMPS,ioos:station:USF.COMPS:C10:1,2015-12-02T23:05:00Z,27.1690,-82.9260,93.66,1111122 
COMPS,ioos:station:USF.COMPS:C10:1,2015-12-02T23:35:00Z,27.1690,-82.9260,94.09,1111122 
COMPS,ioos:station:USF.COMPS:C10:1,2015-12-03T00:05:00Z,27.1690,-82.9260,94.51,1111122 
COMPS,ioos:station:USF.COMPS:C10:1,2015-12-03T00:35:00Z,27.1690,-82.9260,94.93,1111122 
COMPS,ioos:station:USF.COMPS:C10:1,2015-12-03T05:05:00Z,27.1690,-82.9260,90.71,1111122 
COMPS,ioos:station:USF.COMPS:C10:1,2015-12-03T05:35:00Z,27.1690,-82.9260,90.47,1111122 
COMPS,ioos:station:USF.COMPS:C10:1,2015-12-03T06:05:00Z,27.1690,-82.9260,91.0,1111122 
COMPS,ioos:station:USF.COMPS:C10:1,2015-12-03T06:35:00Z,27.1690,-82.9260,91.3,1111122 
COMPS,ioos:station:USF.COMPS:C10:1,2015-12-03T07:05:00Z,27.1690,-82.9260,91.86,1111122 
COMPS,ioos:station:USF.COMPS:C10:1,2015-12-03T07:35:00Z,27.1690,-82.9260,92.0,1111122 
COMPS,ioos:station:USF.COMPS:C10:1,2015-12-03T08:05:00Z,27.1690,-82.9260,91.31,1111122 
COMPS,ioos:station:USF.COMPS:C10:1,2015-12-03T08:35:00Z,27.1690,-82.9260,90.67,1111122 
COMPS,ioos:station:USF.COMPS:C10:1,2015-12-03T09:05:00Z,27.1690,-82.9260,90.73,1111122 
COMPS,ioos:station:USF.COMPS:C10:1,2015-12-03T09:35:00Z,27.1690,-82.9260,90.32,1111122 
COMPS,ioos:station:USF.COMPS:C10:1,2015-12-03T10:05:00Z,27.1690,-82.9260,83.8,1111122 
COMPS,ioos:station:USF.COMPS:C10:1,2015-12-03T10:35:00Z,27.1690,-82.9260,89.33,1111122 
COMPS,ioos:station:USF.COMPS:C10:1,2015-12-03T11:05:00Z,27.1690,-82.9260,89.5,1111122 
COMPS,ioos:station:USF.COMPS:C10:1,2015-12-03T11:35:00Z,27.1690,-82.9260,90.33,1111122 
COMPS,ioos:station:USF.COMPS:C10:1,2015-12-03T12:05:00Z,27.1690,-82.9260,88.76,1111122 
COMPS,ioos:station:USF.COMPS:C10:1,2015-12-03T12:35:00Z,27.1690,-82.9260,86.39,1111122 
COMPS,ioos:station:USF.COMPS:C10:1,2015-12-03T13:05:00Z,27.1690,-82.9260,86.84,1111122 
COMPS,ioos:station:USF.COMPS:C10:1,2015-12-03T13:35:00Z,27.1690,-82.9260,85.45,1111122 
COMPS,ioos:station:USF.COMPS:C10:1,2015-12-03T14:05:00Z,27.1690,-82.9260,86.93,1111122 
COMPS,ioos:station:USF.COMPS:C10:1,2015-12-03T14:35:00Z,27.1690,-82.9260,86.16,1111122 
COMPS,ioos:station:USF.COMPS:C10:1,2015-12-03T15:05:00Z,27.1690,-82.9260,86.67,1111122 
COMPS,ioos:station:USF.COMPS:C10:1,2015-12-03T15:35:00Z,27.1690,-82.9260,87.77,1111122 
COMPS,ioos:station:USF.COMPS:C10:1,2015-12-03T16:05:00Z,27.1690,-82.9260,88.23,1111122 
COMPS,ioos:station:USF.COMPS:C10:1,2015-12-03T16:35:00Z,27.1690,-82.9260,88.65,1111122 
COMPS,ioos:station:USF.COMPS:C10:1,2015-12-03T17:05:00Z,27.1690,-82.9260,88.69,1111122 
COMPS,ioos:station:USF.COMPS:C10:1,2015-12-03T17:35:00Z,27.1690,-82.9260,87.01,1111122 
COMPS,ioos:station:USF.COMPS:C10:1,2015-12-03T18:05:00Z,27.1690,-82.9260,86.0,1111122 
COMPS,ioos:station:USF.COMPS:C10:1,2015-12-03T18:35:00Z,27.1690,-82.9260,86.62,1111122 
COMPS,ioos:station:USF.COMPS:C10:1,2015-12-03T19:05:00Z,27.1690,-82.9260,86.64,1111122 
COMPS,ioos:station:USF.COMPS:C10:1,2015-12-03T19:35:00Z,27.1690,-82.9260,87.82,1111122 
COMPS,ioos:station:USF.COMPS:C10:1,2015-12-03T21:05:00Z,27.1690,-82.9260,91.15,1111122 
COMPS,ioos:station:USF.COMPS:C10:1,2015-12-03T21:35:00Z,27.1690,-82.9260,92.35,1111122 
COMPS,ioos:station:USF.COMPS:C10:1,2015-12-03T22:05:00Z,27.1690,-82.9260,91.34,1111122 
COMPS,ioos:station:USF.COMPS:C10:1,2015-12-03T22:35:00Z,27.1690,-82.9260,90.02,1111122 
COMPS,ioos:station:USF.COMPS:C10:1,2015-12-03T23:05:00Z,27.1690,-82.9260,88.41,1111122 
COMPS,ioos:station:USF.COMPS:C10:1,2015-12-03T23:35:00Z,27.1690,-82.9260,89.93,1111122 
COMPS,ioos:station:USF.COMPS:C10:1,2015-12-04T01:05:00Z,27.1690,-82.9260,90.91,1111122 
COMPS,ioos:station:USF.COMPS:C10:1,2015-12-04T01:35:00Z,27.1690,-82.9260,89.4,1111122 
COMPS,ioos:station:USF.COMPS:C10:1,2015-12-04T05:05:00Z,27.1690,-82.9260,88.21,1111122 
COMPS,ioos:station:USF.COMPS:C10:1,2015-12-04T05:35:00Z,27.1690,-82.9260,82.7,1111122 
COMPS,ioos:station:USF.COMPS:C10:1,2015-12-04T06:05:00Z,27.1690,-82.9260,78.95,1111122 
COMPS,ioos:station:USF.COMPS:C10:1,2015-12-04T06:35:00Z,27.1690,-82.9260,82.51,1111122 
COMPS,ioos:station:USF.COMPS:C10:1,2015-12-04T07:05:00Z,27.1690,-82.9260,82.95,1111122 
COMPS,ioos:station:USF.COMPS:C10:1,2015-12-04T07:35:00Z,27.1690,-82.9260,85.45,1111122 
COMPS,ioos:station:USF.COMPS:C10:1,2015-12-04T08:05:00Z,27.1690,-82.9260,85.76,1111122 
COMPS,ioos:station:USF.COMPS:C10:1,2015-12-04T08:35:00Z,27.1690,-82.9260,85.75,1111122 
COMPS,ioos:station:USF.COMPS:C10:1,2015-12-04T09:05:00Z,27.1690,-82.9260,86.2,1111122 
COMPS,ioos:station:USF.COMPS:C10:1,2015-12-04T09:35:00Z,27.1690,-82.9260,86.28,1111122 
COMPS,ioos:station:USF.COMPS:C10:1,2015-12-04T10:05:00Z,27.1690,-82.9260,86.75,1111122 
COMPS,ioos:station:USF.COMPS:C10:1,2015-12-04T10:35:00Z,27.1690,-82.9260,87.24,1111122 
COMPS,ioos:station:USF.COMPS:C10:1,2015-12-04T12:05:00Z,27.1690,-82.9260,86.95,1111122 
COMPS,ioos:station:USF.COMPS:C10:1,2015-12-04T12:35:00Z,27.1690,-82.9260,86.56,1111122 
COMPS,ioos:station:USF.COMPS:C10:1,2015-12-04T14:05:00Z,27.1690,-82.9260,87.51,1111122 
COMPS,ioos:station:USF.COMPS:C10:1,2015-12-04T14:35:00Z,27.1690,-82.9260,85.31,1111122 
COMPS,ioos:station:USF.COMPS:C10:1,2015-12-04T15:05:00Z,27.1690,-82.9260,85.7,1111122 
COMPS,ioos:station:USF.COMPS:C10:1,2015-12-04T15:35:00Z,27.1690,-82.9260,85.7,1111122 
COMPS,ioos:station:USF.COMPS:C10:1,2015-12-04T16:05:00Z,27.1690,-82.9260,86.62,1111122 
COMPS,ioos:station:USF.COMPS:C10:1,2015-12-04T16:35:00Z,27.1690,-82.9260,87.15,1111122 
COMPS,ioos:station:USF.COMPS:C10:1,2015-12-04T17:05:00Z,27.1690,-82.9260,87.75,1111122 
COMPS,ioos:station:USF.COMPS:C10:1,2015-12-04T17:35:00Z,27.1690,-82.9260,86.3,1111122 
COMPS,ioos:station:USF.COMPS:C10:1,2015-12-04T20:05:00Z,27.1690,-82.9260,83.4,1111122 
COMPS,ioos:station:USF.COMPS:C10:1,2015-12-04T20:35:00Z,27.1690,-82.9260,83.81,1111122 
COMPS,ioos:station:USF.COMPS:C10:1,2015-12-04T21:05:00Z,27.1690,-82.9260,81.74,1111122 
COMPS,ioos:station:USF.COMPS:C10:1,2015-12-04T21:35:00Z,27.1690,-82.9260,79.92,1111122 
COMPS,ioos:station:USF.COMPS:C10:1,2015-12-04T22:05:00Z,27.1690,-82.9260,77.63,1111122 
COMPS,ioos:station:USF.COMPS:C10:1,2015-12-04T22:35:00Z,27.1690,-82.9260,77.99,1111122 
COMPS,ioos:station:USF.COMPS:C10:1,2015-12-05T05:05:00Z,27.1690,-82.9260,84.98,1111122 
COMPS,ioos:station:USF.COMPS:C10:1,2015-12-05T05:35:00Z,27.1690,-82.9260,85.28,1111122 
COMPS,ioos:station:USF.COMPS:C10:1,2015-12-05T06:05:00Z,27.1690,-82.9260,86.58,1111122 
COMPS,ioos:station:USF.COMPS:C10:1,2015-12-05T06:35:00Z,27.1690,-82.9260,87.02,1111122 
COMPS,ioos:station:USF.COMPS:C10:1,2015-12-05T07:05:00Z,27.1690,-82.9260,87.25,1111122 
COMPS,ioos:station:USF.COMPS:C10:1,2015-12-05T07:35:00Z,27.1690,-82.9260,87.6,1111122 
COMPS,ioos:station:USF.COMPS:C10:1,2015-12-05T15:05:00Z,27.1690,-82.9260,84.63,1111122 
COMPS,ioos:station:USF.COMPS:C10:1,2015-12-05T15:35:00Z,27.1690,-82.9260,83.08,1111122 
COMPS,ioos:station:USF.COMPS:C10:1,2015-12-05T17:05:00Z,27.1690,-82.9260,81.4,1111122 
COMPS,ioos:station:USF.COMPS:C10:1,2015-12-05T17:35:00Z,27.1690,-82.9260,79.1,1111122 
COMPS,ioos:station:USF.COMPS:C10:1,2015-12-05T19:05:00Z,27.1690,-82.9260,83.91,1111122 
COMPS,ioos:station:USF.COMPS:C10:1,2015-12-05T19:35:00Z,27.1690,-82.9260,82.8,1111122 
COMPS,ioos:station:USF.COMPS:C10:1,2015-12-05T21:05:00Z,27.1690,-82.9260,81.33,1111122 
COMPS,ioos:station:USF.COMPS:C10:1,2015-12-05T21:35:00Z,27.1690,-82.9260,76.83,1111122 
COMPS,ioos:station:USF.COMPS:C10:1,2015-12-05T22:05:00Z,27.1690,-82.9260,76.81,1111122 
COMPS,ioos:station:USF.COMPS:C10:1,2015-12-05T22:35:00Z,27.1690,-82.9260,73.86,1111122 
COMPS,ioos:station:USF.COMPS:C10:1,2015-12-05T23:05:00Z,27.1690,-82.9260,75.15,1111122 
COMPS,ioos:station:USF.COMPS:C10:1,2015-12-05T23:35:00Z,27.1690,-82.9260,77.07,1111122 
COMPS,ioos:station:USF.COMPS:C10:1,2015-12-06T00:05:00Z,27.1690,-82.9260,76.85,1111122 
COMPS,ioos:station:USF.COMPS:C10:1,2015-12-06T00:35:00Z,27.1690,-82.9260,77.63,1111122 
COMPS,ioos:station:USF.COMPS:C10:1,2015-12-06T01:05:00Z,27.1690,-82.9260,78.14,1111122 
COMPS,ioos:station:USF.COMPS:C10:1,2015-12-06T01:35:00Z,27.1690,-82.9260,79.47,1111122 
COMPS,ioos:station:USF.COMPS:C10:1,2015-12-06T02:05:00Z,27.1690,-82.9260,78.83,1111122 
COMPS,ioos:station:USF.COMPS:C10:1,2015-12-06T02:35:00Z,27.1690,-82.9260,79.85,1111122 
COMPS,ioos:station:USF.COMPS:C10:1,2015-12-06T03:05:00Z,27.1690,-82.9260,86.18,1111122 
COMPS,ioos:station:USF.COMPS:C10:1,2015-12-06T03:35:00Z,27.1690,-82.9260,88.12,1111122 
COMPS,ioos:station:USF.COMPS:C10:1,2015-12-06T05:05:00Z,27.1690,-82.9260,87.0,1111122 
COMPS,ioos:station:USF.COMPS:C10:1,2015-12-06T05:35:00Z,27.1690,-82.9260,86.54,1111122 
COMPS,ioos:station:USF.COMPS:C10:1,2015-12-06T06:05:00Z,27.1690,-82.9260,86.83,1111122 
COMPS,ioos:station:USF.COMPS:C10:1,2015-12-06T06:35:00Z,27.1690,-82.9260,86.86,1111122 
COMPS,ioos:station:USF.COMPS:C10:1,2015-12-06T08:05:00Z,27.1690,-82.9260,84.17,1111122 
COMPS,ioos:station:USF.COMPS:C10:1,2015-12-06T08:35:00Z,27.1690,-82.9260,82.88,1111122 
COMPS,ioos:station:USF.COMPS:C10:1,2015-12-06T09:05:00Z,27.1690,-82.9260,81.62,1111122 
COMPS,ioos:station:USF.COMPS:C10:1,2015-12-06T09:35:00Z,27.1690,-82.9260,81.68,1111122 
COMPS,ioos:station:USF.COMPS:C10:1,2015-12-06T10:05:00Z,27.1690,-82.9260,83.36,1111122 
COMPS,ioos:station:USF.COMPS:C10:1,2015-12-06T10:35:00Z,27.1690,-82.9260,82.72,1111122 
COMPS,ioos:station:USF.COMPS:C10:1,2015-12-06T13:05:00Z,27.1690,-82.9260,83.06,1111122 
COMPS,ioos:station:USF.COMPS:C10:1,2015-12-06T13:35:00Z,27.1690,-82.9260,83.87,1111122 
COMPS,ioos:station:USF.COMPS:C10:1,2015-12-06T14:05:00Z,27.1690,-82.9260,84.81,1111122 
COMPS,ioos:station:USF.COMPS:C10:1,2015-12-06T14:35:00Z,27.1690,-82.9260,84.18,1111122 
COMPS,ioos:station:USF.COMPS:C10:1,2015-12-06T15:05:00Z,27.1690,-82.9260,83.97,1111122 
COMPS,ioos:station:USF.COMPS:C10:1,2015-12-06T15:35:00Z,27.1690,-82.9260,84.32,1111122 
COMPS,ioos:station:USF.COMPS:C10:1,2015-12-06T16:05:00Z,27.1690,-82.9260,82.89,1111122 
COMPS,ioos:station:USF.COMPS:C10:1,2015-12-06T16:35:00Z,27.1690,-82.9260,81.26,1111122 
COMPS,ioos:station:USF.COMPS:C10:1,2015-12-06T18:05:00Z,27.1690,-82.9260,78.77,1111122 
COMPS,ioos:station:USF.COMPS:C10:1,2015-12-06T18:35:00Z,27.1690,-82.9260,78.91,1111122 
COMPS,ioos:station:USF.COMPS:C10:1,2015-12-06T21:05:00Z,27.1690,-82.9260,81.92,1111122 
COMPS,ioos:station:USF.COMPS:C10:1,2015-12-06T21:35:00Z,27.1690,-82.9260,81.81,1111122 
COMPS,ioos:station:USF.COMPS:C10:1,2015-12-06T22:05:00Z,27.1690,-82.9260,80.42,1111122 
COMPS,ioos:station:USF.COMPS:C10:1,2015-12-06T22:35:00Z,27.1690,-82.9260,80.32,1111122 
COMPS,ioos:station:USF.COMPS:C10:1,2015-12-06T23:05:00Z,27.1690,-82.9260,82.91,1111122 
COMPS,ioos:station:USF.COMPS:C10:1,2015-12-06T23:35:00Z,27.1690,-82.9260,84.01,1111122 
COMPS,ioos:station:USF.COMPS:C10:1,2015-12-07T00:05:00Z,27.1690,-82.9260,78.73,1111122 
COMPS,ioos:station:USF.COMPS:C10:1,2015-12-07T00:35:00Z,27.1690,-82.9260,78.43,1111122 
COMPS,ioos:station:USF.COMPS:C10:1,2015-12-07T01:05:00Z,27.1690,-82.9260,77.29,1111122 
COMPS,ioos:station:USF.COMPS:C10:1,2015-12-07T01:35:00Z,27.1690,-82.9260,82.48,1111122 
COMPS,ioos:station:USF.COMPS:C10:1,2015-12-07T02:05:00Z,27.1690,-82.9260,83.88,1111122 
COMPS,ioos:station:USF.COMPS:C10:1,2015-12-07T02:35:00Z,27.1690,-82.9260,82.4,1111122 
COMPS,ioos:station:USF.COMPS:C10:1,2015-12-07T05:05:00Z,27.1690,-82.9260,84.99,1111122 
COMPS,ioos:station:USF.COMPS:C10:1,2015-12-07T05:35:00Z,27.1690,-82.9260,85.8,1111122 
COMPS,ioos:station:USF.COMPS:C10:1,2015-12-07T06:05:00Z,27.1690,-82.9260,86.11,1111122 
COMPS,ioos:station:USF.COMPS:C10:1,2015-12-07T06:35:00Z,27.1690,-82.9260,86.7,1111122 
COMPS,ioos:station:USF.COMPS:C10:1,2015-12-07T08:05:00Z,27.1690,-82.9260,87.91,1111122 
COMPS,ioos:station:USF.COMPS:C10:1,2015-12-07T08:35:00Z,27.1690,-82.9260,89.17,1111122 
COMPS,ioos:station:USF.COMPS:C10:1,2015-12-07T13:05:00Z,27.1690,-82.9260,91.64,1111122 
COMPS,ioos:station:USF.COMPS:C10:1,2015-12-07T13:35:00Z,27.1690,-82.9260,91.07,1111122 
COMPS,ioos:station:USF.COMPS:C10:1,2015-12-07T15:05:00Z,27.1690,-82.9260,85.6,1111122 
COMPS,ioos:station:USF.COMPS:C10:1,2015-12-07T15:35:00Z,27.1690,-82.9260,85.21,1111122 
COMPS,ioos:station:USF.COMPS:C10:1,2015-12-07T20:05:00Z,27.1690,-82.9260,84.46,1111122 
COMPS,ioos:station:USF.COMPS:C10:1,2015-12-07T20:35:00Z,27.1690,-82.9260,81.91,1111122 
COMPS,ioos:station:USF.COMPS:C10:1,2015-12-07T21:05:00Z,27.1690,-82.9260,77.15,1111122 
COMPS,ioos:station:USF.COMPS:C10:1,2015-12-07T21:35:00Z,27.1690,-82.9260,75.74,1111122 
COMPS,ioos:station:USF.COMPS:C10:1,2015-12-07T22:05:00Z,27.1690,-82.9260,74.99,1111122 
COMPS,ioos:station:USF.COMPS:C10:1,2015-12-07T22:35:00Z,27.1690,-82.9260,75.97,1111122 
COMPS,ioos:station:USF.COMPS:C10:1,2015-12-07T23:05:00Z,27.1690,-82.9260,82.32,1111122 
COMPS,ioos:station:USF.COMPS:C10:1,2015-12-07T23:35:00Z,27.1690,-82.9260,79.79,1111122 
COMPS,ioos:station:USF.COMPS:C10:1,2015-12-08T05:05:00Z,27.1690,-82.9260,68.42,1111122 
COMPS,ioos:station:USF.COMPS:C10:1,2015-12-08T05:35:00Z,27.1690,-82.9260,61.02,1111122 
COMPS,ioos:station:USF.COMPS:C10:1,2015-12-08T07:05:00Z,27.1690,-82.9260,67.82,1111122 
COMPS,ioos:station:USF.COMPS:C10:1,2015-12-08T07:35:00Z,27.1690,-82.9260,69.31,1111122 
COMPS,ioos:station:USF.COMPS:C10:1,2015-12-08T08:05:00Z,27.1690,-82.9260,66.99,1111122 
COMPS,ioos:station:USF.COMPS:C10:1,2015-12-08T08:35:00Z,27.1690,-82.9260,66.33,1111122 
COMPS,ioos:station:USF.COMPS:C10:1,2015-12-08T09:05:00Z,27.1690,-82.9260,67.42,1111122 
COMPS,ioos:station:USF.COMPS:C10:1,2015-12-08T09:35:00Z,27.1690,-82.9260,68.26,1111122 
COMPS,ioos:station:USF.COMPS:C10:1,2015-12-08T10:05:00Z,27.1690,-82.9260,70.56,1111122 
COMPS,ioos:station:USF.COMPS:C10:1,2015-12-08T10:35:00Z,27.1690,-82.9260,70.9,1111122 
COMPS,ioos:station:USF.COMPS:C10:1,2015-12-08T14:05:00Z,27.1690,-82.9260,68.97,1111122 
COMPS,ioos:station:USF.COMPS:C10:1,2015-12-08T14:35:00Z,27.1690,-82.9260,68.65,1111122 
COMPS,ioos:station:USF.COMPS:C10:1,2015-12-08T17:05:00Z,27.1690,-82.9260,71.64,1111122 
COMPS,ioos:station:USF.COMPS:C10:1,2015-12-08T17:35:00Z,27.1690,-82.9260,71.08,1111122 
COMPS,ioos:station:USF.COMPS:C10:1,2015-12-08T20:05:00Z,27.1690,-82.9260,71.13,1111122 
COMPS,ioos:station:USF.COMPS:C10:1,2015-12-08T20:35:00Z,27.1690,-82.9260,70.16,1111122 
COMPS,ioos:station:USF.COMPS:C10:1,2015-12-08T22:05:00Z,27.1690,-82.9260,74.54,1111122 
COMPS,ioos:station:USF.COMPS:C10:1,2015-12-08T22:35:00Z,27.1690,-82.9260,75.38,1111122 
COMPS,ioos:station:USF.COMPS:C10:1,2015-12-08T23:05:00Z,27.1690,-82.9260,76.5,1111122 
COMPS,ioos:station:USF.COMPS:C10:1,2015-12-08T23:35:00Z,27.1690,-82.9260,77.61,1111122 
COMPS,ioos:station:USF.COMPS:C10:1,2015-12-09T00:05:00Z,27.1690,-82.9260,78.82,1111122 
COMPS,ioos:station:USF.COMPS:C10:1,2015-12-09T00:35:00Z,27.1690,-82.9260,78.03,1111122 
COMPS,ioos:station:USF.COMPS:C10:1,2015-12-09T05:05:00Z,27.1690,-82.9260,77.1,1111122 
COMPS,ioos:station:USF.COMPS:C10:1,2015-12-09T05:35:00Z,27.1690,-82.9260,76.74,1111122 
COMPS,ioos:station:USF.COMPS:C10:1,2015-12-09T06:05:00Z,27.1690,-82.9260,77.68,1111122 
COMPS,ioos:station:USF.COMPS:C10:1,2015-12-09T06:35:00Z,27.1690,-82.9260,78.97,1111122 
COMPS,ioos:station:USF.COMPS:C10:1,2015-12-09T07:05:00Z,27.1690,-82.9260,78.93,1111122 
COMPS,ioos:station:USF.COMPS:C10:1,2015-12-09T07:35:00Z,27.1690,-82.9260,78.51,1111122 
COMPS,ioos:station:USF.COMPS:C10:1,2015-12-09T08:05:00Z,27.1690,-82.9260,79.77,1111122 
COMPS,ioos:station:USF.COMPS:C10:1,2015-12-09T08:35:00Z,27.1690,-82.9260,80.52,1111122 
COMPS,ioos:station:USF.COMPS:C10:1,2015-12-09T09:05:00Z,27.1690,-82.9260,81.2,1111122 
COMPS,ioos:station:USF.COMPS:C10:1,2015-12-09T09:35:00Z,27.1690,-82.9260,81.14,1111122 
COMPS,ioos:station:USF.COMPS:C10:1,2015-12-09T10:05:00Z,27.1690,-82.9260,81.92,1111122 
COMPS,ioos:station:USF.COMPS:C10:1,2015-12-09T10:35:00Z,27.1690,-82.9260,81.21,1111122 
COMPS,ioos:station:USF.COMPS:C10:1,2015-12-09T11:05:00Z,27.1690,-82.9260,81.68,1111122 
COMPS,ioos:station:USF.COMPS:C10:1,2015-12-09T11:35:00Z,27.1690,-82.9260,80.68,1111122 
COMPS,ioos:station:USF.COMPS:C10:1,2015-12-09T12:05:00Z,27.1690,-82.9260,80.64,1111122 
COMPS,ioos:station:USF.COMPS:C10:1,2015-12-09T12:35:00Z,27.1690,-82.9260,80.05,1111122 
COMPS,ioos:station:USF.COMPS:C10:1,2015-12-09T13:05:00Z,27.1690,-82.9260,79.94,1111122 
COMPS,ioos:station:USF.COMPS:C10:1,2015-12-09T13:35:00Z,27.1690,-82.9260,82.0,1111122 
COMPS,ioos:station:USF.COMPS:C10:1,2015-12-09T14:05:00Z,27.1690,-82.9260,82.91,1111122 
COMPS,ioos:station:USF.COMPS:C10:1,2015-12-09T14:35:00Z,27.1690,-82.9260,83.47,1111122 
COMPS,ioos:station:USF.COMPS:C10:1,2015-12-09T15:05:00Z,27.1690,-82.9260,82.85,1111122 
COMPS,ioos:station:USF.COMPS:C10:1,2015-12-09T15:35:00Z,27.1690,-82.9260,82.94,1111122 
COMPS,ioos:station:USF.COMPS:C10:1,2015-12-09T16:05:00Z,27.1690,-82.9260,82.53,1111122 
COMPS,ioos:station:USF.COMPS:C10:1,2015-12-09T16:35:00Z,27.1690,-82.9260,82.89,1111122 